Location: Newark
(48.1500°N, 13.1167°E)
Time: 14:48:23
(UTC+00:00)

Tiangong - Pass Details

Date: 29 September 2021
Orbit: 382 x 384 km, 41.5° (Epoch: 20 October)

Event Time Altitude Azimuth Distance (km) Brightness Sun altitude
Exits shadow 04:10:15 - 224° (SW) 1,456 3.5 -9.8°
Reaches altitude 10° 04:10:26 10° 222° (SW) 1,395 3.4 -9.7°
Maximum altitude 04:12:54 21° 170° (S) 920 3.0 -9.3°
Drops below altitude 10° 04:15:21 10° 119° (ESE) 1,396 4.8 -8.9°
Sets 04:17:43 0° 102° (ESE) 2,249 6.6 -8.5°
